Location: Dodgeville
(42.9600°N, 90.1300°W)
Time: 09:16:52
(UTC-05:00)

Uosat F - Visible Passes

Search period start: 31 August 2016 00:00
Search period end: 10 September 2016 00:00
Orbit: 750 x 762 km, 98.8° (Epoch: 30 August)

Date Brightness Start Highest point End Pass type
(mag) Time Alt. Az. Time Alt. Az. Time Alt. Az.
03 Sep 14.6 19:53:04 10° WSW 19:54:42 11° W 19:56:20 10° WNW visible
07 Sep 14.2 05:58:59 10° NE 06:01:53 15° E 06:04:45 10° SE visible
08 Sep 14.6 19:53:21 10° WSW 19:55:02 12° W 19:56:44 10° WNW visible
